#timestamp,LO_Frequency,Hit,StdDev 
1576112415.4,286047004.4,N
1576112435.2,286047001.3,N
1576112455.0,286047003.3,N
1576112455.9,286047003.3,N
1576112475.8,286047003.6,N
1576112495.6,286047004.1,N
1576112515.4,286047003.1,N
1576112535.3,286047003.8,N
1576112555.1,286047004.2,N
1576112575.9,286047002.9,N
1576112595.7,286047003.0,N
1576112615.5,286047003.6,N
1576112635.4,286047003.6,N
1576112655.2,286047003.5,N
1576112675.1,286047005.8,Y
1576112676.0,286047005.8,P
1576112695.8,286047002.2,N
1576112715.6,286047002.2,N
1576112735.5,286047002.7,N
1576112755.3,286047004.1,Y
1576112775.2,286047001.2,P
1576112795.9,286047000.7,N
1576112815.7,286047002.7,N
1576112835.6,286047000.9,N
1576112855.4,286047000.4,N
1576112875.2,286046998.8,N
1576112895.1,286047001.1,N
1576112896.0,286047001.1,N
1576112915.8,286047001.2,N
1576112935.7,286046999.1,N
1576112955.5,286046999.3,N
1576112975.3,286046999.5,N
1576112995.2,286046997.0,N
1576113015.0,286046999.2,N
1576113015.9,286046999.2,N
1576113035.8,286046998.5,N
1576113055.6,286046998.6,N
1576113075.4,286046998.7,N
1576113095.3,286047000.6,N
1576113115.1,286046999.8,N
1576113135.8,286047001.8,N
1576113155.7,286047001.4,N
1576113175.5,286047003.9,N
1576113195.4,286047001.5,N
1576113215.2,286047001.3,N
1576113235.0,286047004.4,N
1576113235.9,286047004.4,N
1576113255.8,286047001.3,N
1576113275.6,286047002.1,N
1576113295.4,286047004.4,N
1576113315.3,286047001.6,N
1576113335.1,286047004.3,N
1576113355.9,286047000.3,N
1576113375.7,286047000.5,N
1576113395.5,286047001.1,N
1576113415.4,286046999.8,N
1576113435.2,286047002.7,N
1576113455.1,286046999.8,N
1576113456.0,286046999.8,N
1576113475.8,286046999.9,N
1576113495.6,286047002.3,N
1576113515.5,286047002.3,N
1576113535.3,286047002.5,N
1576113555.1,286047002.1,N
1576113575.9,286047004.4,N
1576113595.7,286047004.4,N
1576113615.6,286047001.8,N
1576113635.4,286047005.9,Y
1576113655.2,286047004.1,P
1576113675.1,286047002.0,N
1576113676.0,286047002.0,N
1576113695.8,286047002.7,N
1576113715.7,286046999.7,N
1576113735.5,286046998.2,N
1576113755.3,286046998.1,N
1576113775.2,286047000.0,N
1576113795.9,286047002.6,N
1576113815.7,286047000.3,N
1576113835.6,286047000.6,N
1576113855.4,286047002.0,N
1576113875.3,286047003.7,N
1576113895.1,286047003.8,N
1576113896.0,286047003.8,N
1576113915.8,286047003.9,N
1576113965.7,286047000.4,E
1576113975.6,286047000.0,N
1576113995.5,286047001.1,P
1576114015.3,286047000.8,N
1576114035.1,286047000.7,N
1576114055.9,286047000.1,N
1576114075.7,286047002.7,Y
1576114095.6,286047002.4,P
1576114115.4,286047000.1,N
1576114135.2,286047002.6,N
1576114155.1,286047000.1,N
1576114156.0,286047000.1,N
1576114175.8,286047000.3,N
1576114195.6,286046999.9,N
1576114215.5,286047000.9,N
1576114235.3,286047000.8,N
1576114255.2,286047000.3,N
1576114275.9,286046999.9,N
1576114295.7,286047002.8,Y
1576114315.6,286047002.4,P
1576114335.4,286047000.4,N
1576114355.3,286046999.9,N
1576114375.1,286046998.6,N
1576114376.0,286046998.6,N
1576114395.8,286046999.9,N
1576114415.7,286046998.3,N
1576114435.5,286047000.4,N
1576114455.3,286047002.7,N
1576114475.2,286047000.3,N
1576114495.0,286047002.1,N
1576114495.9,286047002.1,N
1576114515.8,286047002.2,N
1576114535.6,286047000.2,N
1576114555.4,286047002.5,N
1576114575.3,286047000.5,N
1576114595.1,286047001.3,N
1576114615.9,286047002.5,N
1576114635.7,286047001.9,N
1576114655.5,286047002.6,N
1576114675.4,286047003.9,N
1576114695.2,286047004.4,N
1576114715.0,286047001.3,N
1576114715.9,286047001.3,N
1576114735.8,286047001.3,N
1576114755.6,286047002.1,N
1576114775.5,286047001.9,N
1576114795.3,286047002.6,N
1576114815.1,286047001.4,N
1576114835.9,286047001.5,N
1576114855.7,286047000.2,N
1576114875.6,286047002.6,N
1576114895.4,286047002.4,N
1576114915.2,286047000.4,N
1576114935.1,286046999.9,N
1576114936.0,286046999.9,N
1576114955.8,286047000.1,N
1576114975.6,286047000.9,N
1576114995.5,286047000.8,N
1576115015.3,286046998.8,N
1576115035.2,286046998.7,N
1576115055.9,286046999.2,N
1576115075.7,286046997.0,N
1576115095.6,286046997.3,N
1576115115.4,286046997.1,N
1576115135.2,286046997.7,N
1576115155.1,286046997.9,N
1576115156.0,286046997.9,N
1576115175.8,286046996.8,N
1576115195.7,286046997.0,N
1576115215.5,286046999.0,N
1576115235.3,286046998.6,N
1576115255.2,286046999.3,N
1576115275.0,286046998.9,N
1576115275.9,286046998.9,N
1576115295.8,286046999.4,N
1576115315.6,286046999.6,N
1576115335.4,286046996.9,N
1576115355.3,286046996.6,N
1576115375.1,286046997.3,N
1576115395.8,286046997.5,N
1576115415.7,286046995.9,N
1576115435.5,286046995.8,N
1576115455.4,286046995.7,Y
1576115475.2,286046994.9,P
1576115495.0,286046997.9,N
1576115495.9,286046997.9,N
1576115515.8,286046997.6,N
1576115535.6,286046997.8,N
1576115555.5,286046997.4,N
1576115575.3,286046997.9,N
1576115595.1,286046995.2,Y
1576115615.9,286046998.4,P
1576115635.7,286046998.4,P
1576115655.6,286046998.3,P
1576115675.4,286047001.2,Y
1576115695.2,286047001.5,P
1576115715.1,286047001.8,N
1576115716.0,286047001.8,N
1576115735.8,286047001.9,N
1576115755.6,286047001.6,N
1576115775.5,286047002.6,N
1576115795.3,286047003.8,N
1576115815.2,286047004.1,N
1576115835.9,286047002.0,N
1576115855.7,286046999.8,N
1576115875.6,286047002.7,N
1576115895.4,286047000.1,N
1576115915.2,286047002.6,N
1576115935.1,286047002.1,N
1576115936.0,286047002.1,N
1576115955.8,286047001.4,N
1576115975.7,286047002.6,N
1576115995.5,286047002.8,N
